Location: Essen
(51.4609°N, 7.0127°E)
Time: 06:26:27
(UTC+01:00)

ISS - Pass Details

Date: 13 January 2018
Orbit: 402 x 407 km, 51.6° (Epoch: 19 January)

Event Time Altitude Azimuth Distance (km) Brightness Sun altitude
Exits shadow 05:33:55 18° 128° (SE) 1,086 -1.1 -26.9°
Drops below altitude 10° 05:34:53 10° 123° (ESE) 1,464 -0.3 -26.8°
Sets 05:36:59 0° 119° (ESE) 2,323 1.0 -26.4°
